EW7070 Weather Reports


time (UTC)temp
F
wind
direction
speed
knots
gust
knots
rain 1hr
in
rain 24hr
in
rain mn
in
humidity
%
barometer
mb
20200803144526 73 242 0.0 0.0 0.00 0.01 0.01 66 1025.7
20200803143934 73 215 0.0 0.0 0.00 0.01 0.01 69 1025.7
20200803143412 72 213 0.0 0.0 0.00 0.01 0.01 69 1025.7
20200803142905 72 213 0.0 0.0 0.00 0.01 0.01 71 1026.0
20200803142342 71 213 0.0 0.0 0.00 0.01 0.01 70 1025.9
20200803141834 71 203 0.0 0.0 0.00 0.01 0.01 72 1025.9
20200803141309 71 203 0.0 0.0 0.00 0.01 0.01 74 1026.1
20200803140740 70 203 0.0 0.0 0.00 0.01 0.01 74 1026.1
20200803140240 69 203 0.0 0.0 0.00 0.01 0.01 74 1026.1
20200803135717 69 203 0.0 0.0 0.00 0.01 0.01 75 1026.4
20200803135207 69 203 0.0 0.0 0.00 0.01 0.01 77 1026.4
20200803134638 68 203 0.0 0.0 0.00 0.01 0.01 77 1026.4
20200803134111 68 203 0.0 0.0 0.00 0.01 0.01 81 1026.5
20200803133552 67 203 0.0 0.0 0.00 0.01 0.01 87 1026.5
20200803133029 66 203 0.0 0.0 0.00 0.01 0.01 89 1026.5
20200803132513 65 203 0.0 0.0 0.00 0.01 0.01 92 1026.5
20200803131956 65 203 0.0 0.0 0.00 0.01 0.01 96 1026.5
20200803131446 64 203 0.0 0.0 0.00 0.01 0.01 99 1026.5
20200803130925 63 203 0.0 0.0 0.00 0.01 0.01 99 1026.4
20200803130426 62 203 0.0 0.0 0.00 0.01 0.01 100 1026.4
20200803125856 61 203 0.0 0.0 0.00 0.01 0.01 100 1026.3
20200803125357 61 204 0.0 0.0 0.00 0.01 0.01 100 1026.3
20200803124842 60 204 0.0 0.0 0.00 0.01 0.01 100 1026.3
20200803124326 60 204 0.0 0.0 0.00 0.01 0.01 100 1026.2
20200803123805 59 204 0.0 0.0 0.00 0.01 0.01 100 1026.2
20200803123301 59 204 0.0 0.0 0.00 0.01 0.01 100 1026.2
20200803122741 58 204 0.0 0.0 0.00 0.01 0.01 100 1026.3
20200803122216 58 204 0.0 0.0 0.00 0.01 0.01 100 1026.3
20200803121649 57 204 0.0 0.0 0.00 0.01 0.01 99 1026.3
20200803121115 57 204 0.0 0.0 0.00 0.01 0.01 100 1025.9
20200803120534 57 204 0.0 0.0 0.00 0.01 0.01 100 1025.9
20200803120001 56 204 0.0 0.0 0.00 0.01 0.01 100 1025.7
20200803115441 56 204 0.0 0.0 0.00 0.01 0.01 100 1025.7
20200803114914 55 204 0.0 0.0 0.00 0.01 0.01 100 1025.7
20200803114356 55 204 0.0 0.0 0.00 0.01 0.01 100 1025.5
20200803113853 54 204 0.0 0.0 0.00 0.01 0.01 100 1025.5
20200803113334 53 204 0.0 0.0 0.00 0.01 0.01 100 1025.5
20200803112820 52 204 0.0 0.0 0.00 0.01 0.01 99 1025.4
20200803112254 52 204 0.0 0.0 0.00 0.01 0.01 99 1025.4
20200803111735 51 204 0.0 0.0 0.00 0.01 0.01 99 1025.4
20200803111145 50 204 0.0 0.0 0.00 0.01 0.01 99 1025.4
20200803110626 50 204 0.0 0.0 0.00 0.01 0.01 99 1025.4
20200803110101 49 204 0.0 0.0 0.00 0.01 0.01 99 1025.4
20200803105601 49 204 0.0 0.0 0.00 0.01 0.01 99 1025.3
20200803105026 49 204 0.0 0.0 0.00 0.01 0.01 99 1025.3
20200803104512 49 204 0.0 0.0 0.00 0.01 0.01 99 1025.3
20200803103959 49 204 0.0 0.0 0.00 0.01 0.01 99 1025.2
20200803103458 49 204 0.0 0.0 0.00 0.01 0.01 99 1025.2
20200803102933 49 204 0.0 0.0 0.00 0.01 0.01 99 1025.0
20200803102418 49 204 0.0 0.0 0.00 0.01 0.01 99 1025.0
20200803101914 49 204 0.0 0.0 0.00 0.01 0.01 99 1025.0
20200803101415 49 204 0.0 0.0 0.00 0.01 0.01 98 1025.0
20200803100831 49 204 0.0 0.0 0.00 0.01 0.01 99 1025.0
20200803100301 49 204 0.0 0.0 0.00 0.01 0.01 99 1025.0
20200803095722 49 204 0.0 0.0 0.00 0.01 0.01 98 1024.9
20200803095154 49 204 0.0 0.0 0.00 0.01 0.01 99 1024.9
20200803094630 49 204 0.0 0.0 0.00 0.01 0.01 99 1024.9
20200803094055 49 204 0.0 0.0 0.00 0.01 0.01 98 1024.8
20200803093520 49 204 0.0 0.0 0.00 0.01 0.01 98 1024.8
20200803092942 49 204 0.0 0.0 0.01 0.01 0.01 98 1024.7
20200803092409 49 204 0.0 0.0 0.01 0.01 0.01 99 1024.7
20200803091819 50 204 0.0 0.0 0.01 0.01 0.01 99 1024.7
20200803091306 50 204 0.0 0.0 0.01 0.01 0.01 99 1024.6
20200803090723 49 204 0.0 0.0 0.01 0.01 0.01 99 1024.6
20200803090155 49 204 0.0 0.0 0.01 0.01 0.01 98 1024.6
20200803085623 49 204 0.0 0.0 0.01 0.01 0.01 98 1024.6
20200803085043 50 204 0.0 0.0 0.01 0.02 0.01 98 1024.6
20200803084504 50 204 0.0 0.0 0.01 0.02 0.01 99 1024.6
20200803083937 50 204 0.0 0.0 0.01 0.02 0.01 98 1024.3
20200803083349 49 204 0.0 0.0 0.01 0.02 0.01 98 1024.3
20200803082809 50 204 0.0 0.0 0.00 0.01 0.00 98 1024.2
20200803082302 50 204 0.0 0.0 0.00 0.01 0.00 98 1024.2
20200803081729 50 204 0.0 0.0 0.00 0.01 0.00 98 1024.2
20200803081218 49 204 0.0 0.0 0.00 0.01 0.00 98 1024.2
20200803080640 50 204 0.0 0.0 0.00 0.01 0.00 98 1024.2
20200803080105 50 204 0.0 0.0 0.00 0.01 0.00 98 1024.2
20200803075537 50 204 0.0 0.0 0.00 0.01 0.00 98 1024.1
20200803075001 50 204 0.0 0.0 0.00 0.01 0.00 98 1024.1
20200803074456 50 204 0.0 0.0 0.00 0.01 0.00 98 1024.0
20200803073956 50 204 0.0 0.0 0.00 0.01 0.00 98 1024.0
20200803073417 50 204 0.0 0.0 0.00 0.01 0.00 98 1024.0
20200803072909 50 204 0.0 0.0 0.00 0.01 0.00 98 1023.9
20200803072333 50 204 0.0 0.0 0.00 0.01 0.00 98 1023.9
20200803071800 50 204 0.0 0.0 0.00 0.01 0.00 98 1023.9
20200803071223 50 204 0.0 0.0 0.00 0.01 0.00 98 1023.8
20200803070654 50 204 0.0 0.0 0.00 0.01 0.00 98 1023.8
20200803070127 50 204 0.0 0.0 0.00 0.01 0.00 98 1023.8
20200803065601 51 204 0.0 0.0 0.00 0.01 0.00 98 1023.8
20200803065032 51 204 0.0 0.0 0.00 0.01 0.00 98 1023.8
20200803064455 51 204 0.0 0.0 0.00 0.01 0.00 98 1023.8
20200803063929 51 204 0.0 0.0 0.00 0.01 0.00 98 1023.8
20200803063350 51 204 0.0 0.0 0.00 0.01 0.00 98 1023.8
20200803062820 51 204 0.0 0.0 0.00 0.01 0.00 98 1023.9
20200803062253 51 204 0.0 0.0 0.00 0.01 0.00 98 1023.9
20200803061720 51 204 0.0 0.0 0.00 0.01 0.00 98 1023.9
20200803061149 51 204 0.0 0.0 0.00 0.01 0.00 98 1023.9
20200803060611 51 204 0.0 0.0 0.00 0.01 0.00 98 1023.9
20200803060107 51 204 0.0 0.0 0.00 0.01 0.00 98 1023.9
20200803055603 51 204 0.0 0.0 0.00 0.01 0.00 98 1023.9
20200803055027 51 204 0.0 0.0 0.00 0.01 0.00 98 1023.9
20200803054457 51 204 0.0 0.0 0.00 0.01 0.00 98 1023.9
20200803053930 51 204 0.0 0.0 0.00 0.01 0.00 98 1023.9
20200803053353 52 204 0.0 0.0 0.00 0.01 0.00 98 1023.9
20200803052828 52 204 0.0 0.0 0.00 0.01 0.00 98 1024.0
20200803052314 52 204 0.0 0.0 0.00 0.01 0.00 98 1024.0
20200803051812 52 204 0.0 0.0 0.00 0.01 0.00 98 1024.0
20200803051313 52 204 0.0 0.0 0.00 0.01 0.00 98 1024.1
20200803050723 52 204 0.0 0.0 0.00 0.01 0.00 97 1024.1
20200803050205 52 204 0.0 0.0 0.00 0.01 0.00 98 1024.1
20200803045641 52 204 0.0 0.0 0.00 0.01 0.00 98 1024.1
20200803045053 53 204 0.0 0.0 0.00 0.01 0.00 98 1024.1
20200803044504 53 204 0.0 0.0 0.00 0.01 0.00 98 1024.1
20200803043941 53 204 0.0 0.0 0.00 0.01 0.00 98 1024.2
20200803043404 53 204 0.0 0.0 0.00 0.01 0.00 98 1024.2
20200803042819 52 204 0.0 0.0 0.00 0.01 0.00 97 1024.2
20200803042253 53 204 0.0 0.0 0.00 0.01 0.00 97 1024.2
20200803041733 53 204 0.0 0.0 0.00 0.01 0.00 97 1024.2
20200803041234 53 204 0.0 0.0 0.00 0.01 0.00 98 1024.2
20200803040659 53 204 0.0 0.0 0.00 0.01 0.00 98 1024.2
20200803040124 53 204 0.0 0.0 0.00 0.01 0.00 97 1024.2
20200803035601 53 204 0.0 0.0 0.00 0.01 0.00 97 1024.2
20200803035044 53 204 0.0 0.0 0.00 0.01 0.00 97 1024.2
20200803034532 53 204 0.0 0.0 0.00 0.01 0.00 97 1024.1
20200803033935 53 204 0.0 0.0 0.00 0.01 0.00 97 1024.1
20200803033414 53 204 0.0 0.0 0.00 0.01 0.00 97 1024.1
20200803032914 53 204 0.0 0.0 0.00 0.01 0.00 97 1024.0
20200803032321 53 204 0.0 0.0 0.00 0.01 0.00 97 1024.0
20200803031745 54 204 0.0 0.0 0.00 0.01 0.00 97 1024.0
20200803031156 54 204 0.0 0.0 0.00 0.01 0.00 97 1023.9
20200803030613 54 204 0.0 0.0 0.00 0.01 0.00 97 1023.9
20200803030021 54 204 0.0 0.0 0.00 0.01 0.00 97 1023.9
20200803025500 54 204 0.0 0.0 0.00 0.01 0.01 97 1023.9
20200803024911 54 204 0.0 0.0 0.00 0.01 0.01 97 1023.9
20200803024321 54 204 0.0 0.0 0.00 0.01 0.01 97 1023.9
20200803023808 55 204 0.0 0.0 0.00 0.01 0.01 97 1023.9
20200803023259 55 204 0.0 0.0 0.00 0.01 0.01 97 1023.9
20200803022719 55 204 0.0 0.0 0.00 0.01 0.01 97 1023.9
20200803022144 55 204 0.0 0.0 0.00 0.01 0.01 96 1023.9
20200803021610 55 204 0.0 0.0 0.00 0.01 0.01 96 1023.9
20200803021019 55 204 0.0 0.0 0.00 0.01 0.01 96 1023.9
20200803020504 55 204 0.0 0.0 0.00 0.01 0.01 96 1023.9
20200803015956 56 204 0.0 0.0 0.00 0.01 0.01 96 1023.8
20200803015414 56 204 0.0 0.0 0.00 0.01 0.01 96 1023.8
20200803014827 56 204 0.0 0.0 0.00 0.01 0.01 96 1023.8
20200803014257 56 204 0.0 0.0 0.00 0.01 0.01 96 1023.8
20200803013705 56 204 0.0 0.0 0.00 0.01 0.01 96 1023.8
20200803013159 56 204 0.0 0.0 0.00 0.01 0.01 96 1023.8
20200803012703 57 204 0.0 0.0 0.00 0.01 0.01 96 1023.6
20200803012112 57 204 0.0 0.0 0.00 0.01 0.01 96 1023.6
20200803011529 57 204 0.0 0.0 0.00 0.01 0.01 97 1023.4
20200803010945 57 204 0.0 0.0 0.00 0.01 0.01 96 1023.4
20200803010410 58 204 0.0 0.0 0.00 0.01 0.01 96 1023.4
20200803005825 58 204 0.0 0.0 0.00 0.01 0.01 96 1023.3
20200803005304 58 204 0.0 0.0 0.00 0.01 0.01 96 1023.3
20200803004730 59 204 0.0 0.0 0.00 0.01 0.01 97 1023.3
20200803004156 59 204 0.0 0.0 0.00 0.01 0.01 97 1023.3
20200803003621 59 204 0.0 0.0 0.00 0.01 0.01 97 1023.3
20200803003053 58 204 0.0 0.0 0.00 0.01 0.01 96 1023.3
20200803002518 58 204 0.0 0.0 0.00 0.01 0.01 96 1023.3
20200803001945 58 204 0.0 0.0 0.00 0.01 0.01 96 1023.3
20200803001417 58 204 0.0 0.0 0.00 0.01 0.01 96 1023.2
20200803000842 59 204 0.0 0.0 0.00 0.01 0.01 96 1023.2
20200803000315 58 204 0.0 0.0 0.00 0.01 0.01 95 1023.2
20200802235749 59 204 0.0 0.0 0.00 0.01 0.01 95 1023.3
20200802235217 59 204 0.0 0.0 0.00 0.01 0.01 95 1023.3
20200802234645 59 204 0.0 0.0 0.00 0.01 0.01 94 1023.3
20200802234117 59 204 0.0 0.0 0.00 0.01 0.01 94 1023.3
20200802233537 59 204 0.0 0.0 0.00 0.01 0.01 94 1023.3
20200802233006 60 204 0.0 0.0 0.00 0.01 0.01 94 1023.3
20200802232453 60 204 0.0 0.0 0.00 0.01 0.01 94 1023.0
20200802231920 60 204 0.0 0.0 0.00 0.01 0.01 93 1023.0
20200802231413 60 204 0.0 0.0 0.00 0.01 0.01 93 1023.0
20200802230831 61 204 0.0 0.0 0.00 0.01 0.01 93 1023.0
20200802230313 61 204 0.0 0.0 0.00 0.01 0.01 92 1023.0
20200802225734 61 204 0.0 0.0 0.00 0.01 0.01 92 1022.9
20200802225203 61 204 0.0 0.0 0.00 0.01 0.01 93 1022.9
20200802224626 62 204 0.0 0.0 0.00 0.01 0.01 92 1022.9
20200802224121 62 204 0.0 0.0 0.00 0.01 0.01 92 1022.8
20200802223618 62 204 0.0 0.0 0.00 0.01 0.01 92 1022.8
20200802223047 63 204 0.0 0.0 0.00 0.01 0.01 90 1022.8
20200802222538 63 204 0.0 0.0 0.00 0.01 0.01 90 1022.6
20200802222029 63 204 0.0 0.0 0.00 0.01 0.01 90 1022.6
20200802221523 64 204 0.0 0.0 0.00 0.01 0.01 91 1022.6
20200802220957 64 204 0.0 0.0 0.00 0.01 0.01 92 1022.5
20200802220416 64 204 0.0 0.0 0.00 0.01 0.01 92 1022.5
20200802215853 65 204 0.0 0.0 0.00 0.01 0.01 91 1022.5
20200802215315 65 204 0.0 0.0 0.00 0.01 0.01 91 1022.5
20200802214801 65 204 0.0 0.0 0.00 0.01 0.01 91 1022.5
20200802214256 66 204 0.0 0.0 0.00 0.01 0.01 91 1022.4
20200802213737 66 204 0.0 0.0 0.00 0.01 0.01 89 1022.4
20200802213235 67 204 0.0 0.0 0.00 0.01 0.01 87 1022.4
20200802212734 67 204 0.0 0.0 0.00 0.01 0.01 88 1022.4
20200802212228 68 204 0.0 0.0 0.00 0.01 0.01 86 1022.4
20200802211657 68 204 0.0 0.0 0.00 0.01 0.01 85 1022.4
20200802211156 69 204 0.0 0.0 0.00 0.01 0.01 86 1022.3
20200802210622 69 204 0.0 0.0 0.00 0.01 0.01 84 1022.3
20200802210103 70 204 0.0 0.0 0.00 0.01 0.01 85 1022.4
20200802205558 71 204 0.0 0.0 0.00 0.01 0.01 84 1022.3
20200802205009 71 204 0.0 0.0 0.00 0.01 0.01 83 1022.3
20200802204417 71 204 0.0 0.0 0.00 0.01 0.01 82 1022.3
20200802203843 72 204 0.0 0.0 0.00 0.01 0.01 81 1022.3
20200802203325 73 204 0.0 0.0 0.00 0.01 0.01 79 1022.3
20200802202755 73 204 0.0 0.0 0.00 0.01 0.01 79 1022.1
20200802202249 74 204 0.0 0.0 0.00 0.01 0.01 76 1022.1
20200802201727 74 204 0.0 2.6 0.00 0.01 0.01 75 1022.1
20200802201225 75 204 0.9 3.5 0.00 0.01 0.01 72 1022.0
20200802200700 77 204 0.9 3.5 0.00 0.01 0.01 71 1022.0
20200802200156 78 204 0.0 1.7 0.00 0.01 0.01 69 1022.1
20200802195623 79 204 0.0 0.0 0.00 0.01 0.01 68 1022.1
20200802195059 79 204 0.0 1.7 0.00 0.01 0.01 66 1022.1
20200802194553 79 204 0.0 1.7 0.00 0.01 0.01 66 1022.1
20200802194046 80 204 0.0 1.7 0.00 0.01 0.01 65 1022.1
20200802193552 81 204 0.0 1.7 0.00 0.01 0.01 63 1022.1
20200802193023 81 204 1.7 4.3 0.00 0.01 0.01 62 1022.1
20200802192520 83 204 0.9 4.3 0.00 0.01 0.01 58 1022.0
20200802191957 84 204 0.0 4.3 0.00 0.01 0.01 56 1022.0
20200802191449 84 204 0.0 0.9 0.00 0.01 0.01 57 1022.1
20200802190920 84 204 0.0 0.0 0.00 0.01 0.01 52 1022.1
20200802190357 84 204 0.0 0.0 0.00 0.01 0.01 59 1022.1
20200802185851 83 204 0.0 0.0 0.00 0.01 0.01 54 1022.0
20200802185328 83 204 0.0 0.0 0.00 0.01 0.01 54 1022.0
20200802184820 83 204 0.0 1.7 0.00 0.01 0.01 53 1022.0
20200802184259 83 204 0.0 1.7 0.00 0.01 0.01 53 1022.1
20200802183751 83 204 0.0 1.7 0.00 0.01 0.01 52 1022.1
20200802183223 83 204 0.0 0.0 0.00 0.01 0.01 54 1022.1
20200802182656 82 204 0.0 3.5 0.00 0.01 0.01 53 1022.1
20200802182155 82 204 0.0 3.5 0.00 0.01 0.01 54 1022.1
20200802181625 82 204 0.0 1.7 0.00 0.01 0.01 54 1022.1
20200802181101 82 204 0.0 1.7 0.00 0.01 0.01 53 1022.2
20200802180532 82 204 0.0 1.7 0.00 0.01 0.01 54 1022.2
20200802180032 82 208 0.0 0.9 0.00 0.01 0.01 53 1022.3
20200802175500 82 208 0.9 3.5 0.00 0.01 0.01 54 1022.3
20200802175001 82 208 0.9 4.3 0.00 0.01 0.01 55 1022.3
20200802174504 82 208 0.9 4.3 0.00 0.01 0.01 53 1022.4
20200802173947 81 208 0.9 4.3 0.00 0.01 0.01 54 1022.4
20200802173442 81 208 0.9 7.0 0.00 0.01 0.01 58 1022.4
20200802172916 81 208 1.7 7.0 0.00 0.01 0.01 55 1022.5
20200802172359 80 208 0.9 4.3 0.00 0.01 0.01 55 1022.5
20200802171900 80 208 0.9 7.0 0.00 0.01 0.01 56 1022.5
20200802171348 80 208 0.9 7.0 0.00 0.01 0.01 57 1022.5
20200802170839 80 225 0.9 3.5 0.00 0.01 0.01 56 1022.5
20200802170314 80 225 0.9 4.3 0.00 0.01 0.01 55 1022.5
20200802165806 80 226 0.9 4.3 0.00 0.01 0.01 56 1022.6
20200802165304 80 226 1.7 8.7 0.00 0.01 0.01 59 1022.6
20200802164758 80 227 1.7 8.7 0.00 0.01 0.01 58 1022.6
20200802164243 80 227 0.9 5.2 0.00 0.01 0.01 57 1022.7
20200802163743 80 227 0.9 5.2 0.00 0.01 0.01 58 1022.7
20200802163243 80 229 0.0 4.3 0.00 0.01 0.01 57 1022.7
20200802162730 79 229 0.0 0.9 0.00 0.01 0.01 59 1023.0
20200802162224 78 229 0.0 0.9 0.00 0.01 0.01 61 1023.0
20200802161714 78 229 0.0 4.3 0.00 0.01 0.01 63 1022.9
20200802161208 77 229 0.9 4.3 0.00 0.01 0.01 60 1023.2
20200802160648 77 229 0.9 4.3 0.00 0.01 0.01 60 1023.2
20200802160151 76 229 0.9 4.3 0.00 0.01 0.01 62 1023.2
20200802155623 76 229 0.9 4.3 0.00 0.01 0.01 62 1023.4
20200802155121 76 229 0.0 0.0 0.00 0.01 0.01 61 1023.4
20200802154624 76 229 0.0 0.0 0.00 0.01 0.01 63 1023.4
20200802154046 76 229 0.0 0.0 0.00 0.01 0.01 64 1023.6
20200802153521 76 229 0.0 0.0 0.00 0.01 0.01 64 1023.6
20200802152943 75 229 0.0 0.0 0.00 0.01 0.01 64 1024.0
20200802152434 75 229 0.0 0.0 0.00 0.01 0.01 65 1024.0
20200802151900 75 229 0.0 0.0 0.00 0.01 0.01 64 1024.0
20200802151322 74 229 0.0 0.0 0.00 0.01 0.01 64 1024.1
20200802150754 74 229 0.0 0.0 0.00 0.01 0.01 66 1024.1
20200802150228 73 229 0.0 0.0 0.00 0.01 0.01 66 1024.1
20200802145655 73 229 0.0 0.0 0.00 0.01 0.01 66 1024.4
20200802145112 72 229 0.0 0.0 0.00 0.01 0.01 68 1024.4